STARLINK-4188, 52843

Orbit data source: Space-Track

STARLINK-4188, 52843 is a payload satellite owned by SpaceX/Seattle (US) in LEO that was launched on Fri, 17 Jun 2022 UTC via an FALCON 9 launch vehicle from the Air Force Eastern Test Range (AFETR). Payload-class satellites include a variety of spacecraft equipped with specific instruments for various scientific and technological missions. These include communications satellites like Starlink; space stations such as the ISS; scientific satellites like the Hubble; Earth observation satellites from companies like Planet Labs, Umbra, and HawkEye 360; GPS; miniature CubeSats for education and research; and military/defense satellites.

Loading next visibility...
Identifier
52843, 2022-062P
Orbit
LEO
Country
Flag of USUS
Related business
Manufacturer
SpaceX/Seattle
Mission
Operational Commercial Communications
Bus & Motor
STARLINK, Unknown motor
Mass
297 kg wet, ~275 kg dry
Launch date (UTC)
2022-06-17 (4 years ago)
Launch vehicle
FALCON 9
Launch site
Air Force Eastern Test Range (AFETR)
Object type
Payload
Rocket body
Debris
Shape & HBR
Box + 1 Pan, 10.1 m
Radar Cross Section
13.562 m², Large (>1 m²)

Expand to show TLE details & history
Last TLE update: 1 day ago

TLE from 1 day ago
0 STARLINK-4188
1 52843U 22062P   25349.59577476  .00000497  00000-0  49279-4 0  9992
2 52843  53.2196  51.6340 0001347 102.9807 257.1336 15.08848370193094
Epoch: 2025-12-15T14:17Z
TLE epoch observation values (Epoch: 2025-12-15T14:17:54.939Z)
Latitude
0.00002°
Longitude
112.66302°
Altitude
540.823 km
Speed
7.593 km/s
True Right ascension
03h 26m 32s
True Declination
0° 00' 00"
Sunlit
Object was in full shadow at epoch
Visualization orbit readout
Latitude
Unknown
Longitude
Unknown
Altitude
Unknown
Speed
Unknown
Apparent Right ascension
Unknown
Apparent Declination
Unknown
Sunlit
N/A
Visualization observer readout
Local Sidereal Time
13:40:24
Azimuth
Unknown
Elevation
Unknown
Doppler factor
Unknown
Orbital elements
Apogee altitude
540.894 km
Perigee altitude
539.031 km
Semi-major axis
6,918.099 km
Eccentricity
0.00013
Inclination
53.2196°
RAAN
51.634°
Arg. of periapsis
102.9807°
True anomaly
257.11855°
Mean anomaly
257.1336°
Eccentric anomaly
257.12608°
Mean motion
3.77192 °/min
Orbital period
95.44 mins
BSTAR
0.000049279
Loading maneuver chart data...
Computing Atmospheric mass density...
Loading historical data...
Loading historical data...
Loading historical data...
Loading historical data...
Loading historical data...
Loading historical data...
Loading historical data...

Documentation

Showing up to 5 results
|